Glencoe, MN

3:09 AM CST on December 07, 2019 (GMT -0600)
Glencoe Municipal

Weather History for KGYL - October, 2019

Change the Weather History Date:

Wednesday, October 16, 2019

  Actual Average (WUND) Record (WUND)
Temperature  
Mean Temperature 41 °F -  
Max Temperature 43 °F - - (-1)
Min Temperature 39 °F - - (-1)
Degree Days  
Heating Degree Days 24    
Moisture  
Dew Point 37 °F    
Average Humidity 82    
Maximum Humidity 100    
Minimum Humidity 76    
Precipitation  
Precipitation 0.00 in - - ()
Sea Level Pressure  
Sea Level Pressure 30.10 in    
Wind  
Wind Speed 7 mph (WNW)    
Max Wind Speed 13 mph    
Max Gust Speed 18 mph    
Visibility 10 miles    
Events      
Averages and records for this station are not official NWS values.
T = Trace of Precipitation, MM = Missing Value Source: NWS Daily Summary

Daily Weather History Graph

Daily Weather History Graph

Search for Another Location

Airport or City:

Astronomy

Oct. 16, 2019 Rise Set
Actual Time 7:32 AM CDT 6:30 PM CDT
Civil Twilight 7:03 AM CDT 6:59 PM CDT
Nautical Twilight 6:29 AM CDT 7:33 PM CDT
Astronomical Twilight 5:55 AM CDT 8:07 PM CDT
Moon 8:18 PM CDT (10/16) 10:09 AM CDT (10/16)
Length of Visible Light 11h 56m
Length of Day
10h 57m
Waning Gibbous, 92% of the Moon is Illuminated
Oct 16
Waning Gibbous
Oct 21
Last Quarter
Oct 27
New
Nov 4
First Quarter
Nov 12
Full

Hourly Weather History & Observations

Time (CDT) Temp. Windchill Dew Point Humidity Pressure Visibility Wind Dir Wind Speed Gust Speed Precip Events Conditions
12:15 AM 43.7 °F 38.6 °F 36.7 °F 76% 30.08 in 10.0 mi WNW 9.2 mph - N/A   Overcast
12:36 AM 43.7 °F 39.1 °F 37.2 °F 78% 30.08 in 10.0 mi NW 8.1 mph - N/A   Overcast
12:55 AM 43.7 °F 38.1 °F 37.4 °F 78% 30.09 in 10.0 mi WNW 10.4 mph - N/A   Overcast
12:56 AM 43.9 °F 38.3 °F 37.4 °F 78% 30.09 in 10.0 mi WNW 10.4 mph - N/A   Overcast
1:15 AM 43.9 °F 38.3 °F 37.9 °F 80% 30.10 in 10.0 mi WNW 10.4 mph - N/A   Overcast
1:19 AM 43.7 °F 37.7 °F 38.1 °F 81% 30.10 in 10.0 mi WNW 11.5 mph 18.4 mph N/A   Overcast
1:37 AM 43.7 °F 38.6 °F 38.3 °F 81% 30.10 in 10.0 mi WNW 9.2 mph - N/A   Overcast
1:55 AM 43.2 °F 37.4 °F 37.8 °F 81% 30.09 in 10.0 mi WNW 10.4 mph 17.3 mph N/A   Overcast
1:56 AM 43.2 °F 37.4 °F 37.8 °F 81% 30.09 in 10.0 mi WNW 10.4 mph 17.3 mph N/A   Overcast
2:15 AM 43.0 °F 37.2 °F 37.8 °F 82% 30.09 in 10.0 mi WNW 10.4 mph 16.1 mph N/A   Overcast
2:16 AM 43.0 °F 36.8 °F 37.8 °F 82% 30.09 in 10.0 mi WNW 11.5 mph 16.1 mph N/A   Overcast
2:38 AM 42.8 °F 37.0 °F 37.8 °F 82% 30.09 in 10.0 mi WNW 10.4 mph - N/A   Overcast
2:55 AM 42.4 °F 37.0 °F 37.8 °F 83% 30.10 in 10.0 mi WNW 9.2 mph - N/A   Overcast
2:56 AM 42.4 °F 37.0 °F 37.8 °F 83% 30.10 in 10.0 mi WNW 9.2 mph - N/A   Overcast
3:15 AM 42.3 °F 36.3 °F 37.6 °F 83% 30.10 in 10.0 mi WNW 10.4 mph - N/A   Overcast
3:16 AM 42.3 °F 36.3 °F 37.6 °F 83% 30.10 in 10.0 mi WNW 10.4 mph - N/A   Overcast
3:35 AM 42.1 °F 36.6 °F 37.4 °F 83% 30.10 in 10.0 mi WNW 9.2 mph - N/A   Overcast
3:39 AM 42.1 °F 35.7 °F 37.4 °F 83% 30.11 in 10.0 mi WNW 11.5 mph - N/A   Overcast
3:56 AM 41.9 °F 36.3 °F 37.4 °F 84% 30.11 in 10.0 mi WNW 9.2 mph 17.3 mph N/A   Overcast
4:15 AM 41.9 °F 36.3 °F 37.2 °F 83% 30.11 in 10.0 mi WNW 9.2 mph 16.1 mph N/A   Overcast
4:38 AM 41.9 °F 35.0 °F 36.9 °F 82% 30.12 in 10.0 mi West 12.7 mph 17.3 mph N/A   Overcast
4:56 AM 41.5 °F 35.9 °F 36.7 °F 83% 30.12 in 10.0 mi WNW 9.2 mph - N/A   Overcast
5:16 AM 41.5 °F 35.9 °F 36.5 °F 82% 30.12 in 10.0 mi WNW 9.2 mph - N/A   Overcast
5:35 AM 41.4 °F 36.2 °F 36.5 °F 83% 30.12 in 10.0 mi WNW 8.1 mph - N/A   Overcast
5:39 AM 41.4 °F 35.7 °F 36.5 °F 83% 30.12 in 10.0 mi WNW 9.2 mph - N/A   Overcast
5:56 AM 41.2 °F 36.0 °F 36.5 °F 83% 30.12 in 10.0 mi WNW 8.1 mph - N/A   Overcast
6:15 AM 41.0 °F 35.2 °F 36.0 °F 82% 30.12 in 10.0 mi West 9.2 mph - N/A   Overcast
6:35 AM 41.0 °F 35.8 °F 35.8 °F 82% 30.12 in 10.0 mi WNW 8.1 mph - N/A   Overcast
6:39 AM 40.8 °F 35.0 °F 35.6 °F 82% 30.12 in 10.0 mi WNW 9.2 mph - N/A   Overcast
6:57 AM 40.5 °F 34.6 °F 35.6 °F 83% 30.12 in 10.0 mi WNW 9.2 mph - N/A   Overcast
7:15 AM 40.3 °F 35.5 °F 35.8 °F 84% 30.12 in 10.0 mi WNW 6.9 mph - N/A   Overcast
7:16 AM 40.3 °F 34.9 °F 35.8 °F 84% 30.11 in 10.0 mi West 8.1 mph - N/A   Overcast
7:35 AM 40.1 °F 36.9 °F 36.1 °F 86% 30.12 in 10.0 mi West 4.6 mph - N/A   Overcast
7:57 AM 40.3 °F 34.4 °F 36.9 °F 88% 30.12 in 10.0 mi West 9.2 mph - N/A   Overcast
8:15 AM 40.1 °F 34.7 °F 36.9 °F 88% 30.13 in 10.0 mi West 8.1 mph - N/A   Overcast
8:16 AM 40.1 °F 33.6 °F 36.9 °F 88% 30.13 in 10.0 mi West 10.4 mph - N/A   Overcast
8:35 AM 40.1 °F 34.7 °F 36.7 °F 88% 30.13 in 10.0 mi West 8.1 mph - N/A   Overcast
8:58 AM 40.3 °F 34.4 °F 36.7 °F 87% 30.13 in 10.0 mi WNW 9.2 mph - N/A   Overcast
9:16 AM 40.6 °F 36.7 °F 36.7 °F 86% 30.14 in 10.0 mi WNW 5.8 mph - N/A   Overcast
9:35 AM 41.0 °F 35.8 °F 36.7 °F 85% 30.14 in 10.0 mi WNW 8.1 mph - N/A   Overcast
9:36 AM 41.0 °F 35.8 °F 36.7 °F 85% 30.14 in 10.0 mi NW 8.1 mph - N/A   Overcast
9:59 AM 41.5 °F 37.1 °F 36.5 °F 82% 30.14 in 10.0 mi NW 6.9 mph - N/A   Overcast
10:16 AM 41.7 °F 35.6 °F 35.8 °F 79% 30.15 in 10.0 mi WNW 10.4 mph - N/A   Overcast
10:35 AM 41.9 °F 36.9 °F 36.0 °F 79% 30.15 in 10.0 mi NNW 8.1 mph - N/A   Overcast
10:55 AM 41.9 °F 39.0 °F 36.0 °F 79% 30.15 in 10.0 mi WNW 4.6 mph - N/A   Overcast
10:56 AM 41.9 °F 39.0 °F 36.1 °F 80% 30.15 in 10.0 mi NW 4.6 mph - N/A   Overcast
11:18 AM 42.1 °F 38.4 °F 36.0 °F 79% 30.15 in 10.0 mi WNW 5.8 mph - N/A   Overcast
11:36 AM 42.1 °F 38.4 °F 35.8 °F 78% 30.16 in 10.0 mi West 5.8 mph 9.2 mph N/A   Overcast
11:55 AM 42.1 °F 37.1 °F 36.1 °F 79% 30.16 in 10.0 mi West 8.1 mph - N/A   Overcast
11:56 AM 42.1 °F 37.7 °F 36.1 °F 79% 30.16 in 10.0 mi West 6.9 mph - N/A   Overcast
12:17 PM 42.3 °F 38.6 °F 36.1 °F 79% 30.15 in 10.0 mi West 5.8 mph - N/A   Overcast
12:35 PM 42.3 °F 38.6 °F 36.0 °F 78% 30.14 in 10.0 mi West 5.8 mph - N/A   Overcast
12:36 PM 42.3 °F 39.4 °F 36.0 °F 78% 30.14 in 10.0 mi West 4.6 mph - N/A   Overcast
12:55 PM 42.4 °F 38.8 °F 36.0 °F 78% 30.13 in 10.0 mi WSW 5.8 mph - N/A   Overcast
12:59 PM 42.3 °F 37.9 °F 36.0 °F 78% 30.13 in 10.0 mi WNW 6.9 mph - N/A   Overcast
1:15 PM 42.8 °F 39.3 °F 36.3 °F 78% 30.13 in 10.0 mi West 5.8 mph - N/A   Overcast
1:36 PM 42.6 °F 39.0 °F 36.0 °F 77% 30.13 in 10.0 mi West 5.8 mph - N/A   Overcast
1:57 PM 42.6 °F 38.4 °F 36.1 °F 78% 30.12 in 10.0 mi West 6.9 mph - N/A   Overcast
2:15 PM 42.8 °F 38.6 °F 36.1 °F 77% 30.12 in 10.0 mi NW 6.9 mph - N/A   Overcast
2:16 PM 42.8 °F 40.1 °F 36.0 °F 77% 30.12 in 10.0 mi NW 4.6 mph - N/A   Overcast
2:38 PM 43.0 °F 38.8 °F 36.3 °F 77% 30.11 in 10.0 mi WNW 6.9 mph - N/A   Overcast
2:56 PM 43.3 °F 38.1 °F 36.3 °F 76% 30.10 in 10.0 mi West 9.2 mph - N/A   Overcast
3:15 PM 43.3 °F 39.2 °F 36.7 °F 77% 30.09 in 10.0 mi West 6.9 mph - N/A   Overcast
3:16 PM 43.3 °F 39.9 °F 36.7 °F 77% 30.09 in 10.0 mi WNW 5.8 mph - N/A   Overcast
3:38 PM 43.0 °F 39.5 °F 36.7 °F 78% 30.10 in 10.0 mi WSW 5.8 mph - N/A   Overcast
3:55 PM 43.0 °F 38.2 °F 36.7 °F 78% 30.09 in 10.0 mi West 8.1 mph - N/A   Overcast
4:15 PM 43.0 °F 41.3 °F 36.3 °F 77% 30.09 in 10.0 mi WSW 3.5 mph - N/A   Overcast
4:38 PM 43.2 °F 41.5 °F 36.7 °F 78% 30.08 in 10.0 mi SW 3.5 mph - N/A   Overcast
4:55 PM 43.7 °F 42.1 °F 36.5 °F 76% 30.08 in 10.0 mi West 3.5 mph - N/A   Overcast
5:15 PM 43.7 °F 42.1 °F 36.7 °F 76% 30.08 in 10.0 mi WNW 3.5 mph - N/A   Overcast
5:19 PM 43.5 °F 41.9 °F 36.7 °F 77% 30.08 in 10.0 mi West 3.5 mph - N/A   Overcast
5:36 PM 43.0 °F 40.3 °F 36.7 °F 78% 30.07 in 10.0 mi West 4.6 mph - N/A   Overcast
5:55 PM 43.0 °F 41.3 °F 36.7 °F 78% 30.07 in 10.0 mi WSW 3.5 mph - N/A   Overcast
5:56 PM 43.0 °F 41.3 °F 36.7 °F 78% 30.07 in 10.0 mi WSW 3.5 mph - N/A   Overcast
6:25 PM 42.8 °F - 36.5 °F 78% 30.07 in 10.0 mi Calm Calm - N/A   Mostly Cloudy
6:35 PM 42.6 °F - 36.5 °F 79% 30.06 in 10.0 mi Calm Calm - N/A   Mostly Cloudy
6:55 PM 42.4 °F - 36.7 °F 80% 30.05 in 10.0 mi Calm Calm - N/A   Overcast
6:56 PM 42.4 °F - 36.7 °F 80% 30.05 in 10.0 mi Calm Calm - N/A   Overcast
7:18 PM 41.9 °F - 37.9 °F 86% 30.05 in 10.0 mi Calm Calm - N/A   Overcast
7:37 PM 42.1 °F - 37.9 °F 85% 30.05 in 10.0 mi Calm Calm - N/A   Overcast
7:55 PM 42.3 °F - 38.3 °F 86% 30.06 in 10.0 mi Calm Calm - N/A   Overcast
8:15 PM 42.1 °F - 37.9 °F 85% 30.06 in 10.0 mi Calm Calm - N/A   Overcast
8:16 PM 42.1 °F - 38.1 °F 86% 30.06 in 10.0 mi Calm Calm - N/A   Overcast
8:38 PM 41.5 °F - 38.3 °F 88% 30.06 in 10.0 mi Calm Calm - N/A   Overcast
8:56 PM 41.9 °F - 38.3 °F 87% 30.05 in 10.0 mi Calm Calm - N/A   Overcast
9:15 PM 41.9 °F - 38.1 °F 86% 30.04 in 10.0 mi Calm Calm - N/A   Mostly Cloudy
9:35 PM 41.7 °F - 37.8 °F 86% 30.04 in 10.0 mi Calm Calm - N/A   Scattered Clouds
9:57 PM 41.2 °F - 38.3 °F 89% 30.05 in 10.0 mi Calm Calm - N/A   Clear
10:15 PM 41.0 °F - 37.9 °F 89% 30.05 in 10.0 mi Calm Calm - N/A   Clear
10:35 PM 40.6 °F - 38.3 °F 91% 30.06 in 10.0 mi Calm Calm - N/A   Clear
10:39 PM 40.5 °F - 38.3 °F 92% 30.06 in 10.0 mi Calm Calm - N/A   Clear
10:57 PM 40.6 °F - 37.8 °F 89% 30.06 in 10.0 mi Calm Calm - N/A   Clear
11:15 PM 39.9 °F - 39.2 °F 97% 30.06 in 10.0 mi Calm Calm - N/A   Clear
11:35 PM 40.1 °F - 40.1 °F 100% 30.06 in 10.0 mi Calm Calm - N/A   Clear
11:36 PM 40.1 °F - 40.3 °F 100% 30.06 in 10.0 mi Calm Calm - N/A   Clear
11:59 PM 39.0 °F - 39.2 °F 100% 30.06 in 10.0 mi Calm Calm - N/A   Clear